Wind_Speed
30 28 27 26 25 26 28 28 26 24 25 23 21 20 19 17 17 17 16 15 15 15 14 12 11 11 10 10 9 8 8 8 8 9 8 9 9 9 10 10 11 11 12 12
32 30 30 30 28 27 27 27 27 25 24 23 23 21 20 18 19 17 15 15 16 16 13 13 13 10 9 9 9 8 8 8 9 9 9 9 10 11 11 11 11 11 11 12
34 33 32 33 31 30 28 28 27 26 24 23 23 21 21 20 19 18 16 16 16 14 14 14 13 11 10 10 9 9 8 9 9 10 10 11 11 11 11 11 11 11 11 12
35 35 36 32 30 29 28 28 28 26 25 25 23 22 22 22 21 20 17 16 15 14 14 14 13 11 11 11 10 10 10 10 10 10 11 11 11 11 11 11 10 10 10 11
37 37 37 34 31 31 30 30 29 29 28 26 25 25 24 23 22 20 19 16 15 14 14 13 12 12 12 12 11 12 11 11 11 11 11 12 12 12 12 11 11 11 12 13
38 38 39 35 33 32 31 31 29 29 28 27 25 25 25 24 23 20 18 17 16 15 13 13 13 13 13 13 12 12 12 12 12 12 12 12 12 13 13 12 12 12 13 14
38 38 38 35 34 33 34 31 29 29 28 27 26 25 24 23 22 20 18 16 14 14 13 13 13 13 13 13 13 13 13 13 13 13 13 14 14 14 14 14 14 14 14 14
39 39 38 35 34 35 34 31 30 28 27 26 26 25 24 23 21 18 16 15 15 14 13 13 13 14 14 14 14 14 14 14 14 14 14 15 15 15 15 15 15 15 15 15
40 39 37 35 35 35 34 33 31 29 26 26 26 25 24 23 22 19 17 17 16 15 15 15 15 16 15 15 15 15 15 16 16 15 15 15 15 15 15 15 16 16 16 16
38 38 36 34 34 34 34 32 31 30 28 27 25 24 24 25 23 19 17 17 16 16 16 16 17 17 17 17 17 17 16 17 16 16 16 17 17 16 16 17 17 17 17 18
36 35 35 34 34 34 34 33 31 31 30 28 26 23 23 22 22 20 18 17 17 17 17 18 18 17 17 17 17 17 17 17 18 18 18 18 18 18 18 17 18 18 19 20
37 35 34 34 34 33 32 33 32 31 30 27 25 24 23 22 20 20 20 19 19 19 19 18 19 19 18 18 18 18 18 18 18 18 18 18 18 17 17 18 19 19 20 21
34 33 32 31 31 31 31 30 29 28 27 25 24 24 24 22 22 21 21 20 20 20 20 20 20 20 19 19 19 18 18 18 18 18 18 18 18 18 18 19 20 20 21 21
34 32 30 30 30 31 30 29 27 25 26 25 23 23 22 22 21 21 21 21 21 21 21 21 21 20 20 19 19 18 18 18 18 18 18 18 18 19 19 20 20 21 21 21
31 30 29 29 30 29 28 26 25 24 24 23 23 23 22 22 22 21 21 21 21 21 21 21 21 20 20 19 19 19 19 18 19 18 18 19 19 19 20 21 21 22 22 22
28 27 26 25 24 24 25 25 23 23 22 21 22 21 20 21 21 21 21 21 21 21 22 22 21 21 21 20 20 20 19 19 19 18 18 19 19 20 21 21 22 23 23 24
25 25 26 24 23 22 22 22 22 22 21 20 21 21 20 20 21 21 21 21 21 21 21 21 21 21 21 20 19 19 19 19 19 19 19 19 20 21 22 22 23 24 25 25
22 23 23 22 22 22 22 22 22 23 23 22 22 21 21 21 21 21 21 21 21 21 20 21 21 20 19 19 18 19 19 19 20 20 20 21 22 23 23 24 23 24 26 27
21 21 21 21 19 19 20 21 21 22 22 21 21 21 21 21 21 21 20 20 20 20 20 20 19 19 19 18 19 19 20 20 20 20 21 22 23 24 24 24 25 26 27 27
20 20 20 19 18 18 18 19 19 18 19 19 19 20 20 20 20 20 19 19 18 18 18 18 18 18 18 18 19 19 19 20 20 21 22 22 23 24 24 25 26 26 26 27
20 20 20 18 17 17 17 17 17 17 17 17 17 18 18 18 18 18 18 18 18 17 17 18 18 18 18 18 18 19 19 19 19 20 21 22 23 24 24 25 25 26 26 27
19 19 19 18 17 16 17 17 17 17 17 16 17 18 18 17 17 17 17 17 16 16 16 16 17 17 17 17 18 18 19 19 20 21 22 22 23 24 24 25 26 26 26 27
18 18 18 17 17 16 16 16 17 16 16 16 16 16 16 15 15 15 15 15 15 15 15 16 16 17 18 18 18 19 19 19 20 21 21 22 23 23 24 25 25 26 28 28
17 17 17 16 16 15 15 15 15 15 15 15 15 15 15 15 14 14 14 15 14 15 16 16 17 18 19 19 19 19 19 20 21 21 22 23 23 24 25 26 26 27 28 29
15 16 16 17 16 15 14 14 14 15 15 15 14 14 13 13 14 13 14 14 15 15 16 16 17 18 18 18 19 19 20 21 21 22 22 23 24 25 26 26 27 28 28 28
15 15 15 15 15 14 13 13 14 14 14 14 13 13 12 13 13 14 14 15 15 15 15 16 16 17 18 18 19 19 20 21 21 22 22 23 24 25 26 26 27 27 27 28
14 14 14 14 14 13 13 13 13 13 13 13 13 13 12 12 12 13 13 14 15 15 15 16 17 17 18 19 19 20 21 21 21 22 22 23 24 24 25 26 26 27 27 27
Wind_Direction
221 219 222 227 229 231 234 236 239 243 246 246 254 262 269 275 284 290 291 286 287 286 287 290 294 301 296 293 302 303 304 309 310 309 300 296 297 291 289 285 279 278 274 267
221 222 223 225 227 230 234 236 239 241 243 247 253 260 267 274 284 285 283 283 286 286 286 294 295 295 291 298 303 304 306 307 310 309 303 298 298 296 293 289 284 284 279 269
224 224 226 227 229 231 233 235 236 239 241 247 253 262 268 273 279 281 279 280 284 283 287 291 294 296 297 299 308 310 309 307 308 307 303 301 298 295 292 290 286 285 279 276
224 224 227 228 229 231 232 232 235 238 241 247 253 259 265 270 275 276 274 274 276 279 281 285 290 296 295 297 300 301 301 302 306 306 303 304 305 300 295 295 291 289 289 289
226 226 229 228 228 230 232 232 234 236 239 244 251 255 262 269 273 273 273 270 271 272 278 282 286 289 289 293 296 296 297 298 300 300 302 306 306 305 301 299 296 293 291 288
227 229 230 230 230 233 234 236 236 237 238 242 250 256 262 269 275 277 273 265 265 270 276 280 284 285 286 288 291 292 294 294 294 295 297 301 304 306 304 303 302 299 296 292
227 230 232 231 230 232 234 238 237 237 239 245 250 255 262 266 272 277 271 263 263 269 269 276 281 285 287 284 286 290 292 292 291 292 293 296 298 301 301 301 299 299 297 296
226 230 231 231 230 231 235 238 239 240 242 245 248 251 258 263 268 269 265 261 265 271 275 278 280 283 285 284 284 286 288 290 290 291 291 292 295 297 297 297 297 297 294 295
228 231 231 231 231 232 235 238 240 241 243 246 250 252 255 260 263 264 261 264 267 269 273 276 280 282 283 283 284 284 285 286 286 287 289 292 294 295 295 294 294 294 294 295
227 230 229 228 228 230 233 236 238 241 244 245 249 252 255 257 257 257 261 261 265 269 271 274 278 282 282 283 282 282 285 285 285 286 288 291 293 293 293 292 292 294 294 295
226 228 227 227 228 229 233 235 237 238 243 247 248 251 253 255 257 259 261 262 265 268 270 273 277 280 282 282 281 282 284 286 288 289 290 290 291 292 290 289 290 292 293 294
229 229 230 229 229 231 233 236 236 236 241 240 244 248 251 254 255 257 258 260 262 265 269 273 277 280 282 282 281 280 282 285 287 287 287 289 289 290 289 289 291 293 294 293
227 230 231 229 232 233 234 233 233 234 237 240 243 245 248 251 255 258 258 259 261 264 267 272 276 278 280 281 280 280 282 286 287 286 286 287 288 289 290 291 293 293 294 295
230 233 234 232 234 234 234 233 236 236 234 236 240 245 248 250 252 255 257 258 260 263 267 270 274 277 279 281 280 280 283 285 285 285 286 286 287 288 290 292 293 293 294 295
229 230 232 233 233 234 235 238 238 236 235 238 242 246 249 250 252 253 255 256 259 263 266 269 274 276 278 280 281 281 283 285 285 285 285 286 288 290 292 293 293 293 293 294
228 227 226 227 225 228 233 234 234 235 237 241 241 242 246 248 249 253 255 258 261 264 267 270 274 276 278 279 279 280 281 283 283 283 285 286 287 289 292 293 294 294 293 294
226 227 226 225 225 226 231 233 236 238 238 238 239 242 246 249 252 255 259 260 262 265 269 271 274 276 277 278 278 278 279 280 281 283 285 288 289 290 291 293 294 294 292 293
219 219 222 225 231 232 233 238 239 239 238 241 243 245 247 250 253 256 259 261 262 264 267 269 273 275 276 277 278 278 279 279 280 283 286 288 290 291 292 293 294 295 294 295
218 221 224 224 228 233 235 238 238 238 240 241 241 242 246 250 252 254 256 259 261 265 267 269 271 273 275 276 278 280 280 280 282 283 284 286 289 291 293 294 295 296 296 296
219 221 223 224 228 232 235 237 238 239 240 242 241 241 244 247 249 251 254 256 259 261 263 266 268 272 275 277 279 280 281 281 283 284 285 287 288 291 293 294 296 297 297 298
220 221 223 226 230 230 233 235 235 237 240 241 239 237 240 243 246 248 252 255 257 260 264 266 268 272 275 277 279 280 281 282 284 285 286 289 291 293 294 295 296 297 298 299
220 223 225 226 227 226 229 231 233 234 234 234 234 236 240 244 246 248 250 254 258 261 264 268 270 272 276 277 278 279 281 282 284 287 289 291 294 294 294 295 296 298 300 300
215 219 221 223 224 225 226 228 228 228 229 231 233 236 238 241 244 247 250 254 258 260 263 268 272 275 277 278 279 281 283 285 288 290 291 292 294 295 296 297 298 299 300 301
209 212 214 216 218 221 224 225 226 228 230 230 232 235 236 239 242 245 250 255 261 265 267 270 274 276 278 279 281 284 287 289 290 291 292 293 294 296 298 299 300 301 302 302
202 204 208 210 212 214 216 219 221 223 226 226 228 232 236 240 246 251 255 260 263 266 267 270 273 277 279 281 284 287 288 289 290 292 293 295 295 297 298 299 301 302 303 304
193 196 199 202 207 210 212 214 217 220 221 224 229 234 241 247 252 254 256 259 262 265 269 272 275 277 280 283 286 288 290 292 294 295 296 296 297 298 300 302 303 303 304 306
194 197 199 202 207 209 210 214 216 219 223 229 234 239 243 247 250 254 259 263 266 270 273 275 276 280 283 285 286 289 291 293 294 295 297 299 299 301 302 302 303 304 305 306
Height
5825 5829 5832 5835 5838 5840 5842 5845 5848 5851 5853 5855 5856 5857 5858 5858 5859 5860 5859 5860 5859 5859 5858 5857 5856 5855 5854 5854 5852 5851 5851 5850 5849 5848 5847 5846 5845 5844 5843 5842 5842 5841 5840 5840
5819 5823 5826 5829 5832 5835 5837 5840 5843 5845 5848 5850 5851 5853 5854 5855 5856 5856 5856 5856 5856 5855 5855 5854 5853 5851 5851 5851 5850 5849 5848 5848 5847 5846 5845 5844 5843 5842 5840 5839 5838 5837 5837 5837
5814 5818 5821 5824 5827 5830 5833 5835 5838 5840 5844 5845 5846 5848 5850 5851 5852 5852 5852 5852 5852 5851 5851 5851 5849 5848 5848 5847 5847 5847 5847 5846 5845 5844 5843 5841 5840 5839 5837 5836 5835 5834 5833 5833
5808 5813 5814 5821 5823 5825 5828 5831 5833 5835 5838 5841 5843 5845 5845 5846 5846 5847 5848 5848 5848 5847 5848 5848 5847 5846 5846 5846 5845 5844 5844 5843 5842 5841 5840 5839 5837 5835 5834 5833 5832 5831 5831 5830
5802 5805 5808 5814 5817 5820 5823 5825 5828 5830 5833 5836 5838 5840 5841 5841 5841 5842 5842 5843 5843 5843 5844 5844 5843 5843 5843 5842 5842 5841 5840 5839 5839 5838 5837 5836 5834 5833 5831 5830 5829 5828 5827 5827
5795 5798 5802 5809 5812 5814 5818 5819 5823 5825 5828 5831 5833 5835 5837 5838 5838 5838 5837 5837 5838 5839 5839 5839 5839 5840 5839 5839 5838 5838 5837 5836 5835 5835 5834 5833 5831 5830 5829 5827 5826 5825 5824 5823
5788 5791 5796 5802 5806 5809 5812 5815 5818 5820 5823 5825 5828 5831 5832 5832 5833 5833 5833 5832 5833 5834 5834 5835 5835 5836 5835 5834 5834 5834 5833 5832 5832 5831 5830 5829 5828 5827 5825 5824 5823 5822 5820 5819
5781 5785 5791 5795 5799 5803 5805 5809 5811 5814 5817 5820 5822 5824 5826 5826 5827 5828 5828 5829 5829 5830 5831 5831 5831 5831 5831 5831 5830 5830 5829 5828 5828 5827 5826 5825 5824 5823 5822 5820 5819 5818 5816 5815
5775 5780 5785 5789 5793 5796 5799 5803 5806 5808 5811 5814 5816 5818 5819 5821 5822 5823 5823 5824 5825 5826 5827 5827 5827 5827 5826 5826 5825 5825 5825 5824 5823 5822 5822 5821 5820 5819 5818 5816 5815 5814 5812 5811
5768 5772 5777 5782 5785 5789 5793 5797 5800 5803 5805 5808 5810 5812 5814 5816 5817 5817 5817 5819 5820 5821 5822 5822 5822 5822 5822 5821 5821 5820 5820 5819 5818 5818 5817 5816 5815 5814 5813 5811 5810 5809 5807 5806
5761 5765 5770 5775 5779 5783 5787 5790 5793 5795 5798 5801 5804 5806 5808 5810 5811 5812 5813 5814 5815 5816 5817 5817 5817 5817 5817 5816 5816 5815 5815 5814 5814 5813 5812 5811 5810 5809 5807 5806 5805 5804 5802 5801
5754 5759 5764 5769 5773 5776 5780 5783 5785 5789 5792 5794 5797 5800 5802 5804 5805 5806 5807 5808 5809 5810 5811 5811 5812 5812 5811 5811 5810 5810 5810 5809 5808 5807 5806 5805 5804 5803 5802 5801 5800 5798 5797 5795
5748 5753 5758 5762 5765 5769 5772 5776 5778 5782 5785 5788 5791 5793 5795 5797 5799 5801 5802 5803 5804 5804 5805 5806 5806 5806 5806 5805 5805 5804 5804 5803 5802 5802 5801 5800 5799 5798 5797 5795 5794 5792 5790 5788
5743 5748 5752 5756 5759 5763 5766 5769 5772 5774 5777 5781 5784 5787 5789 5791 5792 5794 5796 5797 5798 5799 5800 5800 5800 5800 5800 5800 5799 5799 5798 5798 5797 5796 5795 5794 5793 5792 5791 5790 5788 5786 5784 5782
5737 5742 5745 5748 5752 5756 5759 5762 5765 5768 5771 5775 5777 5780 5783 5785 5786 5788 5789 5790 5791 5792 5793 5794 5794 5794 5794 5794 5793 5793 5792 5792 5791 5790 5789 5788 5787 5786 5784 5783 5781 5779 5777 5775
5731 5735 5739 5742 5746 5750 5754 5757 5760 5762 5766 5769 5772 5774 5776 5778 5780 5782 5783 5784 5786 5787 5787 5788 5788 5788 5788 5788 5787 5787 5786 5786 5785 5784 5783 5782 5781 5780 5778 5776 5774 5772 5770 5768
5726 5730 5734 5737 5741 5745 5748 5752 5755 5759 5761 5764 5766 5769 5771 5773 5775 5776 5778 5779 5780 5781 5781 5781 5782 5782 5782 5781 5781 5781 5780 5780 5779 5778 5777 5776 5774 5773 5771 5769 5767 5765 5763 5760
5721 5725 5729 5733 5737 5740 5743 5747 5750 5754 5756 5759 5761 5763 5765 5767 5769 5771 5772 5773 5774 5775 5775 5775 5775 5775 5775 5775 5775 5775 5774 5774 5773 5772 5770 5769 5768 5766 5764 5762 5760 5758 5755 5753
5717 5721 5725 5729 5733 5736 5739 5742 5745 5748 5751 5753 5755 5757 5760 5762 5763 5765 5766 5767 5767 5768 5769 5769 5769 5769 5769 5769 5768 5768 5767 5767 5766 5765 5764 5763 5761 5759 5757 5755 5752 5750 5747 5744
5713 5717 5721 5725 5728 5731 5734 5737 5740 5742 5745 5747 5750 5752 5754 5756 5757 5759 5760 5760 5761 5762 5762 5763 5763 5763 5763 5763 5762 5762 5761 5760 5760 5758 5757 5756 5754 5752 5750 5748 5745 5742 5739 5736
5710 5714 5717 5721 5724 5726 5729 5732 5735 5737 5740 5742 5744 5746 5748 5750 5752 5753 5754 5755 5756 5756 5757 5757 5758 5758 5758 5757 5757 5756 5755 5754 5753 5752 5750 5749 5747 5745 5743 5740 5737 5735 5732 5729
5706 5710 5713 5717 5719 5722 5725 5728 5730 5733 5735 5738 5740 5741 5743 5745 5746 5748 5749 5750 5751 5751 5752 5752 5752 5752 5752 5751 5750 5750 5749 5748 5747 5745 5744 5742 5740 5737 5735 5733 5730 5727 5724 5721
5702 5706 5709 5713 5716 5719 5721 5724 5726 5729 5731 5733 5735 5737 5739 5740 5742 5743 5744 5745 5746 5746 5746 5747 5746 5746 5746 5745 5744 5744 5743 5741 5740 5738 5737 5735 5732 5730 5728 5725 5722 5719 5716 5713
5699 5703 5706 5709 5712 5715 5718 5720 5722 5725 5727 5729 5731 5733 5735 5736 5737 5738 5739 5740 5740 5741 5741 5741 5741 5741 5740 5739 5739 5738 5737 5735 5733 5732 5730 5727 5725 5723 5720 5718 5715 5712 5708 5705
5696 5700 5703 5706 5709 5712 5715 5717 5719 5721 5723 5725 5727 5729 5730 5732 5733 5734 5734 5735 5735 5736 5736 5736 5735 5735 5735 5734 5733 5732 5730 5729 5727 5725 5723 5721 5718 5716 5713 5710 5707 5704 5701 5697
5695 5698 5700 5703 5706 5709 5712 5714 5716 5718 5720 5722 5723 5725 5726 5727 5728 5729 5729 5730 5731 5731 5731 5731 5730 5730 5729 5728 5726 5725 5723 5722 5720 5718 5716 5714 5711 5708 5705 5702 5699 5696 5693 5689
5693 5696 5699 5702 5704 5706 5709 5711 5713 5715 5717 5718 5720 5721 5722 5723 5724 5725 5725 5726 5726 5726 5725 5725 5724 5724 5723 5721 5720 5718 5717 5715 5713 5711 5709 5707 5704 5701 5698 5695 5692 5689 5686 5682